QPF
0.02 0.02 0.02 0.04 0.06 0.03 0.01 0.01 0.02 0.02 0.03 0.03 0.04 0.03 0.03 0.03 0.02 0.03 0.05 0.07 0.08 0.08 0.07 0.05 0.04 0.04 0.05 0.05 0.06 0.07 0.07 0.05 0.03 0.04 0.04 0.05 0.05 0.05 0.03 0.03 0.02 0.02 0.02
0.02 0.02 0.04 0.06 0.07 0.06 0.03 0.02 0.01 0.01 0.02 0.01 0.02 0.03 0.03 0.03 0.03 0.03 0.02 0.03 0.05 0.07 0.08 0.08 0.07 0.06 0.05 0.05 0.05 0.07 0.08 0.07 0.05 0.04 0.05 0.06 0.07 0.07 0.06 0.05 0.03 0.03 0.03
0.04 0.05 0.08 0.09 0.07 0.06 0.04 0.02 0.01 0.01 0.01 0.01 0.01 0.02 0.03 0.03 0.03 0.03 0.02 0.02 0.03 0.04 0.05 0.06 0.07 0.07 0.07 0.06 0.06 0.06 0.06 0.07 0.08 0.07 0.07 0.06 0.05 0.06 0.07 0.06 0.05 0.04 0.04
0.03 0.04 0.04 0.04 0.05 0.04 0.03 0.03 0.02 0.01 0.00 0.01 0.01 0.01 0.02 0.02 0.03 0.03 0.03 0.02 0.03 0.03 0.04 0.05 0.05 0.06 0.06 0.07 0.07 0.07 0.06 0.06 0.07 0.07 0.07 0.07 0.04 0.04 0.05 0.07 0.06 0.05 0.04
0.02 0.02 0.02 0.03 0.04 0.03 0.02 0.02 0.03 0.01 0.00 0.00 0.01 0.01 0.01 0.02 0.02 0.03 0.03 0.03 0.02 0.03 0.03 0.04 0.05 0.06 0.05 0.05 0.06 0.08 0.08 0.07 0.06 0.06 0.06 0.06 0.05 0.04 0.04 0.07 0.08 0.06 0.05
0.01 0.01 0.01 0.02 0.02 0.02 0.01 0.01 0.00 0.01 0.01 0.01 0.01 0.01 0.01 0.01 0.01 0.02 0.04 0.04 0.03 0.02 0.03 0.04 0.04 0.05 0.05 0.05 0.05 0.06 0.07 0.07 0.07 0.06 0.06 0.06 0.06 0.05 0.04 0.05 0.07 0.07 0.07
0.01 0.00 0.01 0.01 0.01 0.01 0.01 0.01 0.00 0.01 0.01 0.02 0.02 0.01 0.01 0.02 0.02 0.03 0.04 0.05 0.04 0.04 0.03 0.04 0.05 0.05 0.05 0.04 0.05 0.05 0.05 0.07 0.08 0.07 0.05 0.05 0.05 0.05 0.04 0.05 0.06 0.06 0.06
0.01 0.00 0.00 0.01 0.01 0.01 0.00 0.00 0.00 0.01 0.01 0.01 0.01 0.02 0.03 0.03 0.04 0.03 0.03 0.04 0.05 0.06 0.05 0.05 0.05 0.05 0.05 0.05 0.04 0.05 0.05 0.05 0.06 0.06 0.06 0.06 0.05 0.05 0.04 0.04 0.05 0.06 0.06
0.01 0.01 0.00 0.01 0.01 0.01 0.00 0.00 0.00 0.01 0.01 0.01 0.01 0.02 0.02 0.03 0.04 0.04 0.04 0.04 0.04 0.05 0.07 0.07 0.06 0.06 0.06 0.05 0.05 0.05 0.05 0.05 0.04 0.04 0.04 0.04 0.05 0.05 0.04 0.03 0.04 0.04 0.05
0.02 0.01 0.00 0.01 0.01 0.00 0.00 0.00 0.00 0.01 0.01 0.01 0.02 0.03 0.02 0.02 0.03 0.04 0.04 0.05 0.04 0.04 0.05 0.07 0.06 0.06 0.05 0.05 0.05 0.04 0.04 0.04 0.05 0.04 0.04 0.04 0.03 0.04 0.04 0.03 0.02 0.02 0.03
0.02 0.01 0.01 0.01 0.01 0.00 0.00 0.00 0.00 0.01 0.01 0.01 0.02 0.04 0.04 0.03 0.03 0.04 0.06 0.06 0.05 0.06 0.06 0.05 0.05 0.06 0.06 0.05 0.06 0.05 0.05 0.04 0.04 0.04 0.04 0.03 0.03 0.03 0.03 0.02 0.02 0.02 0.02
0.01 0.02 0.01 0.01 0.01 0.00 0.00 0.00 0.00 0.01 0.01 0.01 0.03 0.04 0.05 0.05 0.04 0.05 0.07 0.08 0.09 0.08 0.08 0.06 0.05 0.05 0.06 0.06 0.06 0.05 0.05 0.05 0.05 0.05 0.05 0.05 0.04 0.03 0.03 0.03 0.02 0.02 0.02
0.01 0.02 0.02 0.01 0.01 0.01 0.01 0.00 0.00 0.01 0.01 0.02 0.03 0.04 0.05 0.06 0.06 0.06 0.07 0.08 0.09 0.10 0.11 0.10 0.05 0.05 0.06 0.06 0.05 0.04 0.04 0.04 0.05 0.04 0.04 0.04 0.05 0.05 0.05 0.04 0.03 0.03 0.03
0.01 0.02 0.04 0.02 0.01 0.01 0.01 0.01 0.01 0.01 0.01 0.02 0.02 0.03 0.05 0.07 0.07 0.07 0.06 0.05 0.05 0.08 0.11 0.13 0.07 0.05 0.05 0.05 0.05 0.04 0.03 0.04 0.04 0.04 0.04 0.04 0.05 0.05 0.04 0.04 0.04 0.04 0.04
0.01 0.02 0.04 0.04 0.02 0.01 0.01 0.01 0.02 0.02 0.01 0.01 0.02 0.03 0.04 0.05 0.06 0.07 0.06 0.05 0.05 0.06 0.08 0.10 0.09 0.06 0.05 0.05 0.06 0.05 0.04 0.03 0.03 0.04 0.04 0.04 0.05 0.05 0.05 0.06 0.05 0.04 0.03
0.01 0.01 0.02 0.04 0.03 0.03 0.02 0.02 0.02 0.02 0.02 0.02 0.02 0.03 0.03 0.04 0.05 0.06 0.07 0.06 0.05 0.05 0.04 0.05 0.07 0.06 0.04 0.04 0.05 0.04 0.04 0.03 0.03 0.03 0.03 0.03 0.04 0.04 0.05 0.06 0.06 0.05 0.04
0.01 0.01 0.02 0.02 0.04 0.03 0.03 0.03 0.03 0.03 0.02 0.02 0.02 0.02 0.03 0.04 0.05 0.06 0.06 0.07 0.06 0.05 0.04 0.04 0.05 0.05 0.04 0.03 0.04 0.05 0.04 0.04 0.03 0.03 0.03 0.03 0.04 0.04 0.04 0.05 0.05 0.05 0.04
0.01 0.01 0.02 0.02 0.02 0.02 0.02 0.03 0.03 0.03 0.03 0.03 0.02 0.02 0.03 0.03 0.04 0.05 0.06 0.06 0.06 0.05 0.05 0.04 0.05 0.06 0.05 0.05 0.04 0.05 0.05 0.05 0.05 0.03 0.03 0.03 0.03 0.04 0.05 0.05 0.05 0.05 0.04
0.01 0.01 0.02 0.02 0.02 0.02 0.02 0.02 0.02 0.03 0.03 0.03 0.03 0.03 0.03 0.03 0.04 0.04 0.05 0.05 0.06 0.06 0.06 0.05 0.06 0.06 0.06 0.06 0.06 0.06 0.06 0.06 0.07 0.05 0.04 0.04 0.04 0.04 0.05 0.05 0.05 0.05 0.05
0.01 0.01 0.01 0.02 0.01 0.01 0.02 0.02 0.02 0.02 0.03 0.04 0.04 0.04 0.04 0.03 0.04 0.05 0.05 0.04 0.06 0.07 0.08 0.07 0.07 0.07 0.08 0.08 0.08 0.07 0.06 0.07 0.08 0.07 0.06 0.05 0.06 0.06 0.06 0.06 0.06 0.05 0.05
0.01 0.01 0.01 0.02 0.01 0.01 0.01 0.01 0.02 0.02 0.03 0.03 0.04 0.03 0.04 0.04 0.04 0.04 0.06 0.06 0.05 0.06 0.07 0.07 0.06 0.06 0.08 0.09 0.09 0.09 0.07 0.07 0.07 0.08 0.08 0.07 0.07 0.06 0.06 0.06 0.06 0.06 0.05
0.00 0.00 0.01 0.02 0.01 0.01 0.01 0.01 0.01 0.02 0.02 0.03 0.03 0.03 0.04 0.03 0.03 0.04 0.05 0.06 0.05 0.04 0.06 0.06 0.06 0.05 0.06 0.07 0.08 0.08 0.07 0.06 0.05 0.06 0.08 0.09 0.09 0.08 0.08 0.07 0.07 0.07 0.07
0.00 0.00 0.01 0.01 0.01 0.01 0.01 0.01 0.02 0.02 0.02 0.02 0.03 0.03 0.04 0.03 0.03 0.03 0.04 0.06 0.06 0.05 0.05 0.06 0.06 0.05 0.04 0.05 0.06 0.06 0.06 0.05 0.04 0.04 0.05 0.06 0.07 0.07 0.07 0.07 0.07 0.06 0.06
0.00 0.00 0.00 0.00 0.01 0.00 0.01 0.01 0.02 0.02 0.02 0.02 0.02 0.02 0.03 0.03 0.03 0.03 0.03 0.04 0.06 0.05 0.05 0.05 0.05 0.04 0.04 0.04 0.04 0.05 0.05 0.04 0.04 0.04 0.04 0.04 0.05 0.04 0.04 0.05 0.05 0.05 0.05
0.00 0.00 0.00 0.00 0.00 0.01 0.01 0.01 0.02 0.02 0.01 0.02 0.02 0.02 0.02 0.02 0.02 0.03 0.03 0.04 0.05 0.05 0.05 0.05 0.04 0.04 0.04 0.04 0.04 0.05 0.05 0.05 0.03 0.03 0.03 0.03 0.03 0.03 0.03 0.04 0.04 0.04 0.04
0.01 0.00 0.00 0.01 0.01 0.01 0.01 0.01 0.01 0.01 0.01 0.01 0.02 0.02 0.01 0.01 0.01 0.02 0.02 0.03 0.04 0.04 0.04 0.04 0.04 0.04 0.04 0.04 0.04 0.04 0.04 0.04 0.04 0.03 0.03 0.02 0.02 0.02 0.03 0.03 0.03 0.03 0.04
MSLP
1020.93 1021.05 1021.23 1021.47 1021.75 1022.05 1022.34 1022.61 1022.84 1023.02 1023.16 1023.26 1023.34 1023.42 1023.51 1023.59 1023.69 1023.77 1023.83 1023.87 1023.88 1023.85 1023.80 1023.73 1023.64 1023.55 1023.44 1023.32 1023.16 1022.96 1022.71 1022.42 1022.09 1021.73 1021.38 1021.05 1020.75 1020.50 1020.29 1020.12 1019.96 1019.79 1019.60
1021.37 1021.45 1021.56 1021.72 1021.91 1022.12 1022.35 1022.58 1022.79 1022.99 1023.18 1023.35 1023.51 1023.65 1023.79 1023.92 1024.03 1024.13 1024.21 1024.26 1024.29 1024.29 1024.27 1024.24 1024.18 1024.10 1024.00 1023.85 1023.67 1023.43 1023.14 1022.81 1022.44 1022.07 1021.69 1021.34 1021.02 1020.74 1020.49 1020.28 1020.07 1019.87 1019.65
1022.09 1022.13 1022.17 1022.23 1022.31 1022.42 1022.56 1022.72 1022.91 1023.12 1023.34 1023.56 1023.78 1023.99 1024.17 1024.33 1024.47 1024.58 1024.66 1024.72 1024.76 1024.79 1024.80 1024.79 1024.75 1024.68 1024.57 1024.41 1024.20 1023.94 1023.62 1023.27 1022.89 1022.50 1022.11 1021.74 1021.40 1021.08 1020.79 1020.52 1020.25 1019.99 1019.72
1023.05 1023.07 1023.05 1023.02 1022.99 1022.99 1023.02 1023.11 1023.26 1023.46 1023.70 1023.96 1024.22 1024.46 1024.68 1024.86 1025.01 1025.12 1025.20 1025.26 1025.31 1025.34 1025.36 1025.36 1025.34 1025.27 1025.15 1024.98 1024.75 1024.47 1024.14 1023.79 1023.41 1023.03 1022.65 1022.28 1021.92 1021.56 1021.22 1020.87 1020.53 1020.19 1019.86
1024.17 1024.19 1024.14 1024.04 1023.91 1023.81 1023.75 1023.77 1023.86 1024.04 1024.28 1024.55 1024.83 1025.10 1025.33 1025.52 1025.65 1025.75 1025.82 1025.87 1025.90 1025.94 1025.96 1025.96 1025.92 1025.84 1025.71 1025.53 1025.29 1025.00 1024.68 1024.34 1023.99 1023.63 1023.27 1022.91 1022.54 1022.16 1021.76 1021.34 1020.92 1020.50 1020.09
1025.30 1025.36 1025.30 1025.17 1024.99 1024.82 1024.69 1024.64 1024.69 1024.84 1025.06 1025.33 1025.61 1025.88 1026.10 1026.27 1026.39 1026.46 1026.51 1026.54 1026.56 1026.57 1026.58 1026.56 1026.50 1026.40 1026.25 1026.05 1025.79 1025.51 1025.20 1024.88 1024.56 1024.25 1023.92 1023.58 1023.21 1022.81 1022.37 1021.89 1021.39 1020.89 1020.40
1026.30 1026.42 1026.41 1026.28 1026.09 1025.89 1025.73 1025.65 1025.67 1025.79 1025.99 1026.24 1026.51 1026.75 1026.95 1027.09 1027.18 1027.23 1027.24 1027.24 1027.24 1027.23 1027.20 1027.16 1027.07 1026.94 1026.75 1026.52 1026.25 1025.96 1025.66 1025.37 1025.09 1024.81 1024.53 1024.21 1023.86 1023.45 1022.98 1022.46 1021.90 1021.33 1020.78
1027.02 1027.24 1027.31 1027.24 1027.10 1026.92 1026.77 1026.69 1026.70 1026.80 1026.98 1027.21 1027.44 1027.65 1027.81 1027.92 1027.98 1027.99 1027.98 1027.95 1027.92 1027.88 1027.82 1027.73 1027.60 1027.42 1027.19 1026.92 1026.62 1026.32 1026.03 1025.75 1025.50 1025.26 1025.01 1024.73 1024.40 1023.99 1023.51 1022.96 1022.37 1021.75 1021.15
1027.39 1027.74 1027.92 1027.96 1027.91 1027.80 1027.71 1027.66 1027.68 1027.78 1027.94 1028.13 1028.33 1028.50 1028.62 1028.69 1028.71 1028.69 1028.66 1028.61 1028.55 1028.48 1028.38 1028.26 1028.08 1027.84 1027.56 1027.24 1026.91 1026.58 1026.27 1026.00 1025.76 1025.54 1025.32 1025.07 1024.75 1024.36 1023.89 1023.33 1022.73 1022.10 1021.48
1027.43 1027.92 1028.24 1028.42 1028.48 1028.49 1028.47 1028.49 1028.54 1028.65 1028.79 1028.96 1029.11 1029.23 1029.31 1029.34 1029.33 1029.29 1029.23 1029.16 1029.08 1028.99 1028.86 1028.69 1028.46 1028.17 1027.83 1027.45 1027.07 1026.70 1026.37 1026.09 1025.85 1025.64 1025.43 1025.19 1024.90 1024.52 1024.07 1023.53 1022.94 1022.32 1021.72
1027.23 1027.85 1028.32 1028.64 1028.85 1028.97 1029.06 1029.15 1029.25 1029.37 1029.50 1029.63 1029.73 1029.80 1029.84 1029.83 1029.79 1029.73 1029.65 1029.57 1029.48 1029.36 1029.20 1028.99 1028.71 1028.36 1027.96 1027.54 1027.10 1026.69 1026.33 1026.02 1025.76 1025.55 1025.34 1025.11 1024.82 1024.47 1024.04 1023.53 1022.98 1022.39 1021.82
1026.97 1027.70 1028.29 1028.75 1029.09 1029.33 1029.52 1029.67 1029.81 1029.94 1030.05 1030.14 1030.20 1030.22 1030.21 1030.16 1030.09 1030.01 1029.92 1029.83 1029.72 1029.57 1029.38 1029.13 1028.80 1028.41 1027.96 1027.48 1027.00 1026.55 1026.14 1025.81 1025.53 1025.30 1025.08 1024.85 1024.57 1024.24 1023.83 1023.36 1022.85 1022.32 1021.79
1026.80 1027.62 1028.30 1028.86 1029.29 1029.63 1029.90 1030.10 1030.27 1030.39 1030.48 1030.53 1030.54 1030.51 1030.45 1030.36 1030.26 1030.16 1030.05 1029.93 1029.80 1029.63 1029.41 1029.11 1028.74 1028.30 1027.81 1027.29 1026.77 1026.28 1025.85 1025.48 1025.18 1024.93 1024.70 1024.46 1024.19 1023.87 1023.49 1023.06 1022.60 1022.12 1021.65
1026.87 1027.71 1028.44 1029.05 1029.55 1029.94 1030.25 1030.48 1030.65 1030.76 1030.82 1030.83 1030.79 1030.71 1030.60 1030.47 1030.34 1030.21 1030.07 1029.93 1029.77 1029.56 1029.30 1028.96 1028.54 1028.06 1027.53 1026.97 1026.42 1025.91 1025.46 1025.07 1024.75 1024.48 1024.24 1023.99 1023.73 1023.42 1023.06 1022.67 1022.25 1021.82 1021.41
1027.21 1028.03 1028.75 1029.36 1029.86 1030.27 1030.59 1030.82 1030.99 1031.07 1031.10 1031.07 1030.98 1030.86 1030.70 1030.54 1030.37 1030.21 1030.04 1029.86 1029.66 1029.41 1029.09 1028.70 1028.24 1027.72 1027.15 1026.57 1026.00 1025.47 1025.01 1024.61 1024.28 1023.99 1023.74 1023.49 1023.22 1022.92 1022.59 1022.23 1021.85 1021.47 1021.10
1027.79 1028.54 1029.19 1029.76 1030.23 1030.61 1030.91 1031.13 1031.27 1031.33 1031.33 1031.26 1031.14 1030.98 1030.80 1030.60 1030.40 1030.20 1030.00 1029.77 1029.52 1029.21 1028.84 1028.39 1027.88 1027.31 1026.71 1026.11 1025.53 1024.99 1024.52 1024.12 1023.78 1023.48 1023.22 1022.96 1022.69 1022.40 1022.08 1021.75 1021.40 1021.06 1020.74
1028.47 1029.11 1029.67 1030.15 1030.56 1030.90 1031.17 1031.36 1031.47 1031.52 1031.49 1031.41 1031.27 1031.09 1030.88 1030.66 1030.44 1030.21 1029.96 1029.68 1029.37 1029.00 1028.57 1028.06 1027.50 1026.89 1026.26 1025.63 1025.04 1024.49 1024.02 1023.61 1023.26 1022.96 1022.68 1022.41 1022.14 1021.86 1021.55 1021.24 1020.92 1020.61 1020.32
1029.12 1029.62 1030.06 1030.45 1030.79 1031.07 1031.30 1031.47 1031.57 1031.61 1031.57 1031.48 1031.34 1031.15 1030.94 1030.71 1030.46 1030.20 1029.91 1029.59 1029.22 1028.79 1028.30 1027.74 1027.12 1026.47 1025.81 1025.17 1024.56 1024.00 1023.52 1023.10 1022.74 1022.42 1022.13 1021.85 1021.57 1021.29 1020.99 1020.69 1020.40 1020.11 1019.85
1029.57 1029.95 1030.28 1030.58 1030.85 1031.09 1031.29 1031.45 1031.54 1031.58 1031.55 1031.46 1031.32 1031.14 1030.93 1030.69 1030.43 1030.15 1029.83 1029.47 1029.05 1028.57 1028.03 1027.42 1026.76 1026.08 1025.39 1024.72 1024.10 1023.53 1023.03 1022.60 1022.22 1021.88 1021.57 1021.28 1020.99 1020.69 1020.40 1020.11 1019.84 1019.57 1019.33
1029.79 1030.05 1030.29 1030.53 1030.75 1030.96 1031.15 1031.30 1031.40 1031.44 1031.42 1031.34 1031.21 1031.03 1030.82 1030.58 1030.31 1030.01 1029.67 1029.28 1028.83 1028.31 1027.73 1027.08 1026.40 1025.69 1024.98 1024.30 1023.66 1023.08 1022.56 1022.11 1021.71 1021.35 1021.01 1020.69 1020.39 1020.08 1019.79 1019.51 1019.25 1019.01 1018.78
1029.78 1029.96 1030.15 1030.34 1030.55 1030.75 1030.93 1031.09 1031.19 1031.23 1031.21 1031.13 1031.00 1030.82 1030.60 1030.35 1030.07 1029.75 1029.39 1028.98 1028.51 1027.97 1027.37 1026.71 1026.01 1025.30 1024.58 1023.89 1023.25 1022.65 1022.12 1021.64 1021.22 1020.83 1020.47 1020.12 1019.80 1019.49 1019.19 1018.92 1018.67 1018.44 1018.23
1029.65 1029.79 1029.95 1030.13 1030.33 1030.53 1030.71 1030.86 1030.96 1030.99 1030.96 1030.86 1030.71 1030.51 1030.27 1030.01 1029.71 1029.37 1029.00 1028.58 1028.09 1027.55 1026.94 1026.29 1025.59 1024.88 1024.17 1023.49 1022.84 1022.25 1021.70 1021.21 1020.76 1020.35 1019.96 1019.60 1019.26 1018.94 1018.64 1018.37 1018.13 1017.92 1017.73
1029.54 1029.67 1029.82 1030.00 1030.20 1030.40 1030.57 1030.70 1030.78 1030.78 1030.71 1030.57 1030.38 1030.14 1029.87 1029.57 1029.25 1028.90 1028.51 1028.07 1027.59 1027.05 1026.45 1025.81 1025.13 1024.44 1023.75 1023.08 1022.44 1021.85 1021.31 1020.81 1020.35 1019.93 1019.53 1019.15 1018.80 1018.47 1018.17 1017.91 1017.67 1017.47 1017.30
1029.56 1029.69 1029.85 1030.03 1030.22 1030.40 1030.55 1030.64 1030.66 1030.61 1030.48 1030.29 1030.04 1029.75 1029.44 1029.10 1028.74 1028.36 1027.96 1027.52 1027.03 1026.50 1025.92 1025.29 1024.64 1023.97 1023.31 1022.67 1022.06 1021.48 1020.95 1020.46 1020.00 1019.58 1019.18 1018.80 1018.45 1018.12 1017.82 1017.56 1017.34 1017.15 1016.98
1029.79 1029.92 1030.07 1030.23 1030.39 1030.53 1030.63 1030.66 1030.61 1030.49 1030.29 1030.03 1029.72 1029.37 1029.01 1028.63 1028.24 1027.84 1027.41 1026.96 1026.48 1025.95 1025.39 1024.78 1024.15 1023.52 1022.88 1022.27 1021.68 1021.14 1020.63 1020.15 1019.72 1019.30 1018.92 1018.55 1018.21 1017.89 1017.60 1017.35 1017.13 1016.94 1016.79
1030.22 1030.32 1030.44 1030.56 1030.67 1030.74 1030.75 1030.70 1030.57 1030.37 1030.10 1029.77 1029.40 1029.01 1028.61 1028.20 1027.79 1027.37 1026.93 1026.48 1025.99 1025.46 1024.91 1024.31 1023.71 1023.09 1022.48 1021.90 1021.34 1020.82 1020.34 1019.90 1019.48 1019.10 1018.73 1018.39 1018.06 1017.76 1017.48 1017.23 1017.02 1016.84 1016.70
Thickness
5514 5517 5519 5522 5525 5528 5531 5534 5537 5540 5543 5545 5548 5550 5553 5556 5559 5562 5564 5567 5570 5574 5577 5580 5583 5586 5589 5592 5594 5595 5595 5595 5596 5595 5595 5596 5598 5600 5601 5603 5604 5606 5607
5502 5504 5506 5508 5510 5513 5516 5520 5523 5526 5529 5532 5534 5537 5540 5543 5547 5549 5552 5556 5559 5562 5566 5569 5572 5575 5578 5582 5584 5586 5587 5586 5588 5588 5587 5586 5587 5590 5592 5593 5595 5596 5598
5486 5489 5492 5494 5496 5499 5501 5505 5508 5512 5515 5518 5521 5524 5527 5531 5534 5537 5540 5544 5547 5551 5555 5558 5561 5565 5568 5572 5575 5577 5579 5579 5578 5581 5581 5580 5581 5579 5581 5583 5585 5586 5588
5470 5473 5476 5479 5482 5484 5487 5490 5494 5497 5501 5504 5507 5511 5514 5518 5521 5524 5527 5531 5535 5539 5543 5547 5550 5554 5558 5561 5565 5568 5570 5571 5570 5570 5572 5574 5575 5573 5572 5572 5574 5576 5578
5454 5457 5460 5462 5466 5469 5473 5476 5480 5483 5486 5490 5493 5497 5500 5503 5507 5510 5514 5518 5523 5527 5530 5534 5538 5542 5547 5550 5554 5557 5560 5562 5562 5562 5563 5563 5564 5566 5566 5564 5564 5566 5568
5439 5442 5445 5448 5451 5455 5458 5461 5465 5468 5471 5475 5479 5482 5485 5489 5493 5497 5501 5505 5509 5513 5517 5521 5525 5530 5534 5539 5543 5546 5549 5551 5553 5554 5555 5556 5557 5557 5557 5557 5556 5556 5557
5424 5427 5430 5433 5436 5440 5443 5446 5449 5453 5456 5460 5464 5468 5471 5475 5479 5483 5487 5491 5495 5500 5504 5507 5512 5517 5521 5526 5530 5534 5537 5540 5543 5544 5546 5548 5549 5550 5550 5548 5547 5546 5546
5410 5413 5416 5418 5421 5424 5428 5431 5435 5438 5442 5445 5450 5454 5457 5460 5464 5468 5472 5476 5481 5486 5491 5494 5499 5504 5508 5512 5517 5522 5526 5529 5531 5534 5536 5538 5539 5540 5541 5541 5539 5537 5536
5396 5399 5402 5404 5406 5410 5413 5416 5420 5423 5427 5431 5435 5440 5443 5446 5450 5454 5458 5463 5467 5472 5477 5481 5487 5491 5496 5500 5504 5509 5513 5517 5520 5523 5525 5527 5528 5529 5530 5531 5532 5531 5529
5383 5386 5388 5390 5392 5395 5399 5402 5405 5408 5412 5416 5420 5425 5429 5433 5436 5440 5445 5449 5454 5458 5463 5468 5474 5479 5483 5487 5492 5497 5501 5504 5507 5510 5513 5516 5517 5518 5519 5520 5521 5523 5523
5369 5372 5374 5376 5378 5381 5385 5388 5391 5394 5398 5402 5406 5411 5416 5420 5424 5428 5432 5436 5440 5445 5450 5456 5461 5466 5471 5475 5479 5484 5489 5493 5495 5498 5502 5505 5506 5508 5509 5509 5510 5511 5512
5358 5359 5360 5362 5365 5368 5371 5374 5376 5380 5385 5389 5393 5398 5403 5407 5412 5416 5420 5424 5428 5433 5438 5443 5449 5454 5459 5463 5467 5472 5477 5481 5484 5487 5490 5493 5496 5497 5498 5499 5500 5500 5501
5347 5347 5348 5350 5352 5354 5357 5360 5363 5367 5372 5376 5381 5386 5390 5395 5399 5404 5408 5413 5417 5422 5426 5431 5436 5442 5447 5451 5455 5460 5465 5469 5473 5476 5479 5482 5485 5487 5488 5489 5489 5489 5490
5334 5336 5337 5338 5340 5342 5345 5348 5351 5355 5360 5365 5369 5374 5378 5383 5387 5392 5397 5402 5406 5411 5415 5419 5424 5430 5435 5439 5443 5448 5453 5457 5460 5464 5467 5471 5474 5477 5478 5478 5478 5478 5477
5325 5325 5325 5327 5329 5332 5334 5337 5340 5344 5348 5353 5358 5362 5367 5372 5377 5381 5386 5390 5395 5400 5404 5408 5413 5418 5423 5427 5431 5436 5441 5445 5449 5452 5456 5459 5462 5465 5467 5469 5468 5467 5466
5314 5315 5316 5317 5319 5321 5324 5327 5330 5333 5337 5342 5346 5350 5355 5360 5366 5371 5375 5380 5385 5389 5394 5397 5402 5407 5412 5417 5421 5424 5428 5432 5436 5440 5444 5447 5449 5452 5455 5456 5457 5458 5457
5305 5306 5306 5307 5309 5311 5314 5317 5320 5324 5327 5331 5335 5339 5344 5349 5354 5360 5365 5370 5374 5379 5383 5386 5391 5396 5401 5405 5409 5413 5417 5420 5424 5429 5432 5434 5437 5439 5441 5442 5443 5444 5445
5296 5297 5298 5299 5301 5303 5305 5308 5311 5315 5318 5322 5325 5329 5334 5338 5344 5349 5354 5358 5363 5368 5372 5376 5380 5385 5389 5394 5398 5401 5405 5409 5413 5417 5421 5423 5424 5426 5428 5430 5430 5430 5431
5287 5288 5290 5291 5293 5295 5298 5300 5303 5306 5309 5313 5316 5320 5324 5328 5333 5338 5343 5348 5352 5357 5362 5366 5370 5374 5378 5382 5387 5391 5394 5399 5402 5406 5409 5411 5413 5415 5418 5419 5418 5418 5418
5280 5280 5282 5283 5285 5287 5289 5291 5295 5298 5301 5304 5308 5311 5315 5319 5324 5328 5332 5337 5342 5347 5351 5355 5359 5363 5367 5372 5376 5381 5384 5388 5391 5394 5397 5400 5402 5404 5405 5407 5407 5406 5406
5272 5273 5274 5275 5276 5278 5280 5283 5286 5289 5292 5295 5299 5303 5306 5310 5315 5319 5323 5327 5331 5335 5339 5344 5348 5352 5356 5361 5366 5370 5374 5377 5380 5382 5384 5387 5389 5391 5393 5394 5395 5395 5395
5264 5264 5265 5266 5267 5269 5271 5274 5277 5280 5283 5286 5290 5294 5298 5302 5306 5309 5314 5318 5321 5325 5328 5333 5337 5341 5345 5349 5354 5359 5363 5366 5368 5370 5372 5374 5376 5379 5380 5382 5383 5383 5383
5254 5255 5255 5257 5258 5259 5261 5263 5267 5271 5274 5278 5282 5286 5289 5293 5296 5300 5305 5308 5311 5314 5318 5322 5326 5330 5334 5338 5343 5347 5351 5354 5356 5358 5360 5362 5364 5366 5367 5368 5369 5370 5370
5245 5245 5246 5247 5248 5250 5252 5254 5258 5261 5265 5269 5273 5277 5280 5284 5287 5291 5295 5298 5302 5305 5309 5312 5315 5319 5323 5327 5331 5335 5338 5341 5344 5346 5348 5350 5351 5352 5353 5354 5355 5356 5356
5236 5235 5235 5236 5238 5241 5244 5247 5249 5253 5256 5259 5263 5267 5271 5274 5278 5281 5284 5288 5292 5295 5299 5303 5306 5310 5314 5318 5322 5325 5328 5330 5333 5334 5336 5337 5338 5339 5339 5340 5341 5341 5342
5226 5226 5226 5227 5229 5232 5234 5238 5241 5244 5247 5251 5255 5258 5261 5264 5268 5272 5276 5279 5283 5287 5291 5294 5298 5301 5305 5309 5313 5316 5319 5320 5322 5323 5324 5324 5325 5325 5326 5326 5326 5327 5328